Location: Spring Creek
(38.2870°N, 100.2160°W)
Time: 04:49:49
(UTC+00:00)

X-37B - Visible Passes

Search period start: 27 January 2022 00:00
Search period end: 06 February 2022 00:00
Orbit: 334 x 337 km, 45.0° (Epoch: 11 January)

Date Brightness Start Highest point End Pass type
(mag) Time Alt. Az. Time Alt. Az. Time Alt. Az.
27 Jan 1.0 00:52:06 10° SW 00:54:46 39° SSE 00:56:12 22° E visible
28 Jan 0.3 01:12:20 10° WSW 01:15:10 70° NNW 01:15:56 42° NE visible
29 Jan 1.6 01:33:06 10° W 01:35:38 32° NNW 01:35:38 32° NNW visible
30 Jan 2.9 01:54:04 10° WNW 01:55:16 18° NW 01:55:16 18° NW visible
31 Jan 1.5 00:38:31 10° W 00:41:08 32° NNW 00:43:39 11° NE visible
01 Feb 2.1 00:59:29 10° WNW 01:01:49 22° N 01:03:15 15° NNE visible
02 Feb 2.1 01:20:21 10° NW 01:22:33 20° N 01:22:51 19° N visible
03 Feb 2.4 01:40:55 10° NW 01:42:28 20° NNW 01:42:28 20° NNW visible
04 Feb 3.0 02:01:16 10° NW 02:02:08 17° NW 02:02:08 17° NW visible
05 Feb 1.9 00:46:21 10° NW 00:48:42 23° N 00:50:37 13° ENE visible
05 Feb 3.7 02:21:37 10° WNW 02:21:52 12° WNW 02:21:52 12° WNW visible
